| time (UTC) | temp C | wind direction | speed KPH | gust KPH | rain 1hr cm | rain 24hr cm | rain mn cm | humidity % | barometer mb |
| 20260906072933 | 22 | 119 | 3.2 | 9.7 | 0.00 | 0.00 | 0.00 | 89 | 1016.4 |
| 20260906072433 | 22 | 75 | 3.2 | 9.7 | 0.00 | 0.00 | 0.00 | 89 | 1016.5 |
| 20260906071931 | 22 | 69 | 4.8 | 11.3 | 0.00 | 0.00 | 0.00 | 89 | 1016.5 |
| 20260906071430 | 22 | 89 | 3.2 | 11.3 | 0.00 | 0.00 | 0.00 | 89 | 1016.5 |
| 20260906070930 | 22 | 31 | 3.2 | 6.4 | 0.00 | 0.00 | 0.00 | 89 | 1016.6 |
| 20260906070431 | 22 | 91 | 4.8 | 9.7 | 0.00 | 0.00 | 0.00 | 89 | 1016.6 |
| 20260906065930 | 22 | 60 | 3.2 | 9.7 | 0.00 | 0.00 | 0.00 | 89 | 1016.7 |
| 20260906065434 | 22 | 57 | 3.2 | 9.7 | 0.00 | 0.00 | 0.00 | 89 | 1016.7 |
| 20260906064931 | 22 | 65 | 3.2 | 9.7 | 0.00 | 0.00 | 0.00 | 88 | 1016.8 |
| 20260906064434 | 22 | 48 | 3.2 | 9.7 | 0.00 | 0.00 | 0.00 | 88 | 1016.7 |
| 20260906063930 | 22 | 70 | 1.6 | 8.0 | 0.00 | 0.00 | 0.00 | 88 | 1016.7 |
| 20260906063432 | 22 | 74 | 1.6 | 6.4 | 0.00 | 0.00 | 0.00 | 88 | 1016.6 |
| 20260906062932 | 22 | 41 | 3.2 | 8.0 | 0.00 | 0.00 | 0.00 | 88 | 1016.7 |
| 20260906062430 | 22 | 45 | 3.2 | 8.0 | 0.00 | 0.00 | 0.00 | 88 | 1016.7 |
| 20260906061651 | 22 | 15 | 3.2 | 6.4 | 0.00 | 0.00 | 0.00 | 88 | 1016.8 |
| 20260906060931 | 23 | 60 | 3.2 | 8.0 | 0.00 | 0.00 | 0.00 | 88 | 1016.8 |
| 20260906060430 | 23 | 29 | 3.2 | 9.7 | 0.00 | 0.00 | 0.00 | 88 | 1016.8 |
| 20260906055931 | 23 | 39 | 3.2 | 9.7 | 0.00 | 0.00 | 0.00 | 88 | 1016.7 |
| 20260906055656 | 23 | 48 | 3.2 | 9.7 | 0.00 | 0.00 | 0.00 | 87 | 1016.7 |
| 20260906054932 | 23 | 48 | 3.2 | 6.4 | 0.00 | 0.00 | 0.00 | 87 | 1016.9 |
| 20260906054154 | 23 | 106 | 3.2 | 8.0 | 0.00 | 0.00 | 0.00 | 87 | 1016.7 |
| 20260906053430 | 23 | 25 | 3.2 | 8.0 | 0.00 | 0.00 | 0.00 | 87 | 1016.6 |
| 20260906052931 | 23 | 50 | 3.2 | 8.0 | 0.00 | 0.00 | 0.00 | 87 | 1016.5 |
| 20260906052653 | 23 | 50 | 3.2 | 8.0 | 0.00 | 0.00 | 0.00 | 87 | 1016.5 |
| 20260906051930 | 23 | 33 | 3.2 | 8.0 | 0.00 | 0.00 | 0.00 | 86 | 1016.6 |
| 20260906051431 | 23 | 33 | 3.2 | 9.7 | 0.00 | 0.00 | 0.00 | 86 | 1016.5 |
| 20260906050934 | 23 | 63 | 3.2 | 9.7 | 0.00 | 0.00 | 0.00 | 86 | 1016.6 |
| 20260906050431 | 23 | 67 | 1.6 | 6.4 | 0.00 | 0.00 | 0.00 | 86 | 1016.6 |
| 20260906045931 | 23 | 29 | 1.6 | 6.4 | 0.00 | 0.00 | 0.00 | 86 | 1016.5 |
| 20260906045657 | 23 | 39 | 1.6 | 6.4 | 0.00 | 0.00 | 0.00 | 86 | 1016.3 |
| 20260906044931 | 23 | 85 | 3.2 | 6.4 | 0.00 | 0.00 | 0.00 | 86 | 1016.2 |
| 20260906044430 | 23 | 55 | 3.2 | 8.0 | 0.00 | 0.00 | 0.00 | 86 | 1016.2 |
| 20260906043932 | 23 | 35 | 3.2 | 8.0 | 0.00 | 0.00 | 0.00 | 86 | 1016.2 |
| 20260906043432 | 23 | 73 | 3.2 | 6.4 | 0.00 | 0.00 | 0.00 | 86 | 1016.2 |
| 20260906042932 | 23 | 73 | 3.2 | 8.0 | 0.00 | 0.00 | 0.00 | 87 | 1016.2 |
| 20260906042432 | 23 | 20 | 1.6 | 8.0 | 0.00 | 0.00 | 0.00 | 87 | 1016.2 |
| 20260906041417 | 23 | 39 | 1.6 | 6.4 | 0.00 | 0.00 | 0.00 | 86 | 1016.2 |
| 20260906040642 | 23 | 49 | 3.2 | 6.4 | 0.00 | 0.00 | 0.00 | 85 | 1016.2 |
| 20260906035410 | 23 | 4 | 3.2 | 6.4 | 0.00 | 0.00 | 0.00 | 85 | 1016.2 |
| 20260906035131 | 23 | 27 | 3.2 | 6.4 | 0.00 | 0.00 | 0.00 | 85 | 1016.2 |
| 20260906034408 | 23 | 62 | 3.2 | 4.8 | 0.00 | 0.00 | 0.00 | 85 | 1016.0 |
| 20260906033905 | 23 | 19 | 1.6 | 4.8 | 0.00 | 0.00 | 0.00 | 85 | 1015.9 |
| 20260906033627 | 23 | 358 | 1.6 | 8.0 | 0.00 | 0.00 | 0.00 | 85 | 1015.9 |
| 20260906032905 | 23 | 64 | 3.2 | 8.0 | 0.00 | 0.00 | 0.00 | 85 | 1016.0 |
| 20260906032403 | 23 | 82 | 1.6 | 4.8 | 0.00 | 0.00 | 0.00 | 85 | 1015.9 |
| 20260906031903 | 24 | 38 | 1.6 | 8.0 | 0.00 | 0.00 | 0.00 | 85 | 1015.8 |
| 20260906031630 | 24 | 74 | 1.6 | 8.0 | 0.00 | 0.00 | 0.00 | 85 | 1015.7 |
| 20260906030902 | 24 | 356 | 1.6 | 4.8 | 0.00 | 0.00 | 0.00 | 85 | 1015.7 |
| 20260906030403 | 24 | 64 | 1.6 | 4.8 | 0.00 | 0.00 | 0.00 | 85 | 1015.7 |
| 20260906025903 | 24 | 63 | 1.6 | 6.4 | 0.00 | 0.00 | 0.00 | 85 | 1015.7 |
| 20260906025403 | 24 | 76 | 3.2 | 8.0 | 0.00 | 0.00 | 0.00 | 85 | 1015.7 |
| 20260906024903 | 24 | 47 | 4.8 | 9.7 | 0.00 | 0.00 | 0.00 | 85 | 1015.5 |
| 20260906024403 | 24 | 62 | 3.2 | 9.7 | 0.00 | 0.00 | 0.00 | 85 | 1015.6 |
| 20260906023903 | 24 | 62 | 3.2 | 8.0 | 0.00 | 0.00 | 0.00 | 85 | 1015.5 |
| 20260906023625 | 24 | 74 | 3.2 | 8.0 | 0.00 | 0.00 | 0.00 | 85 | 1015.5 |
| 20260906022854 | 24 | 89 | 3.2 | 6.4 | 0.00 | 0.00 | 0.00 | 84 | 1015.4 |
| 20260906022354 | 24 | 341 | 3.2 | 11.3 | 0.00 | 0.00 | 0.00 | 85 | 1015.4 |
| 20260906021853 | 24 | 53 | 1.6 | 11.3 | 0.00 | 0.00 | 0.00 | 85 | 1015.3 |
| 20260906021351 | 25 | 57 | 3.2 | 11.3 | 0.00 | 0.00 | 0.00 | 84 | 1015.2 |
| 20260906021119 | 25 | 55 | 3.2 | 12.9 | 0.00 | 0.00 | 0.00 | 84 | 1015.1 |
| 20260906020352 | 25 | 54 | 3.2 | 12.9 | 0.00 | 0.00 | 0.00 | 84 | 1015.0 |
| 20260906015850 | 25 | 15 | 3.2 | 11.3 | 0.00 | 0.00 | 0.00 | 84 | 1014.8 |
| 20260906014850 | 25 | 77 | 3.2 | 8.0 | 0.00 | 0.00 | 0.00 | 83 | 1014.7 |
| 20260906014350 | 25 | 30 | 3.2 | 8.0 | 0.00 | 0.00 | 0.00 | 83 | 1014.7 |
| 20260906013847 | 25 | 54 | 3.2 | 8.0 | 0.00 | 0.00 | 0.00 | 83 | 1014.5 |
| 20260906013348 | 25 | 342 | 3.2 | 8.0 | 0.00 | 0.00 | 0.00 | 83 | 1014.5 |
| 20260906013109 | 25 | 48 | 3.2 | 6.4 | 0.00 | 0.00 | 0.00 | 82 | 1014.5 |
| 20260906012348 | 25 | 38 | 3.2 | 8.0 | 0.00 | 0.00 | 0.00 | 82 | 1014.4 |
| 20260906011846 | 25 | 43 | 3.2 | 8.0 | 0.00 | 0.00 | 0.00 | 82 | 1014.4 |
| 20260906011347 | 25 | 351 | 1.6 | 6.4 | 0.00 | 0.00 | 0.00 | 82 | 1014.4 |
| 20260906010841 | 25 | 54 | 1.6 | 6.4 | 0.00 | 0.00 | 0.00 | 81 | 1014.4 |
| 20260906010341 | 26 | 74 | 3.2 | 6.4 | 0.00 | 0.00 | 0.00 | 81 | 1014.4 |
| 20260906005340 | 26 | 29 | 1.6 | 6.4 | 0.00 | 0.00 | 0.00 | 81 | 1014.2 |
| 20260906004839 | 26 | 77 | 1.6 | 8.0 | 0.00 | 0.00 | 0.00 | 81 | 1014.2 |
| 20260906004339 | 26 | 43 | 3.2 | 8.0 | 0.00 | 0.00 | 0.00 | 81 | 1014.2 |
| 20260906003838 | 26 | 55 | 1.6 | 9.7 | 0.00 | 0.00 | 0.00 | 80 | 1014.2 |
| 20260906003339 | 26 | 349 | 3.2 | 9.7 | 0.00 | 0.00 | 0.00 | 80 | 1014.2 |
| 20260906002838 | 26 | 96 | 3.2 | 8.0 | 0.00 | 0.00 | 0.00 | 80 | 1014.1 |
| 20260906002606 | 26 | 90 | 3.2 | 6.4 | 0.00 | 0.00 | 0.00 | 79 | 1014.2 |
| 20260906001836 | 26 | 60 | 3.2 | 11.3 | 0.00 | 0.00 | 0.00 | 79 | 1014.2 |
| 20260906001335 | 26 | 44 | 3.2 | 11.3 | 0.00 | 0.00 | 0.00 | 78 | 1014.2 |
| 20260906000833 | 27 | 32 | 3.2 | 11.3 | 0.00 | 0.00 | 0.00 | 78 | 1014.2 |
| 20260906000334 | 27 | 46 | 4.8 | 11.3 | 0.00 | 0.00 | 0.00 | 77 | 1014.1 |
| 20260905235836 | 27 | 103 | 4.8 | 16.1 | 0.00 | 0.00 | 0.00 | 78 | 1014.2 |
| 20260905235557 | 27 | 64 | 8.0 | 17.7 | 0.00 | 0.00 | 0.00 | 77 | 1014.1 |
| 20260905234832 | 27 | 49 | 8.0 | 17.7 | 0.00 | 0.00 | 0.00 | 78 | 1014.1 |
| 20260905234331 | 28 | 44 | 8.0 | 17.7 | 0.00 | 0.00 | 0.00 | 78 | 1014.1 |
| 20260905233830 | 28 | 305 | 6.4 | 17.7 | 0.00 | 0.00 | 0.00 | 78 | 1014.1 |
| 20260905233331 | 28 | 45 | 8.0 | 17.7 | 0.00 | 0.00 | 0.00 | 77 | 1014.0 |
| 20260905232835 | 28 | 34 | 8.0 | 17.7 | 0.00 | 0.00 | 0.00 | 76 | 1014.0 |
| 20260905232553 | 29 | 70 | 8.0 | 19.3 | 0.00 | 0.00 | 0.00 | 75 | 1014.0 |
| 20260905231821 | 29 | 351 | 8.0 | 19.3 | 0.00 | 0.00 | 0.00 | 75 | 1013.9 |
| 20260905231316 | 30 | 60 | 6.4 | 16.1 | 0.00 | 0.00 | 0.00 | 74 | 1013.8 |
| 20260905231043 | 30 | 57 | 6.4 | 12.9 | 0.00 | 0.00 | 0.00 | 74 | 1013.7 |
| 20260905230302 | 30 | 54 | 6.4 | 20.9 | 0.00 | 0.00 | 0.00 | 75 | 1013.7 |
| 20260905225801 | 30 | 12 | 8.0 | 20.9 | 0.00 | 0.00 | 0.00 | 73 | 1013.7 |
| 20260905225518 | 30 | 43 | 9.7 | 22.5 | 0.00 | 0.00 | 0.00 | 74 | 1013.6 |
| 20260905224745 | 30 | 92 | 9.7 | 22.5 | 0.00 | 0.00 | 0.00 | 73 | 1013.5 |
| 20260905224243 | 31 | 67 | 8.0 | 19.3 | 0.00 | 0.00 | 0.00 | 72 | 1013.5 |
| 20260905224006 | 31 | 54 | 8.0 | 19.3 | 0.00 | 0.00 | 0.00 | 71 | 1013.5 |
| 20260905223237 | 32 | 54 | 8.0 | 19.3 | 0.00 | 0.00 | 0.00 | 69 | 1013.3 |
| 20260905222736 | 32 | 50 | 6.4 | 17.7 | 0.00 | 0.00 | 0.00 | 67 | 1013.2 |
| 20260905222502 | 32 | 20 | 6.4 | 14.5 | 0.00 | 0.00 | 0.00 | 66 | 1013.2 |
| 20260905222009 | 32 | 5 | 6.4 | 14.5 | 0.00 | 0.00 | 0.00 | 67 | 1013.3 |
| 20260905221236 | 32 | 84 | 6.4 | 16.1 | 0.00 | 0.00 | 0.00 | 64 | 1013.3 |
| 20260905221000 | 32 | 66 | 8.0 | 16.1 | 0.00 | 0.00 | 0.00 | 65 | 1013.2 |
| 20260905220231 | 32 | 27 | 6.4 | 16.1 | 0.00 | 0.00 | 0.00 | 64 | 1013.3 |
| 20260905215731 | 32 | 294 | 4.8 | 14.5 | 0.00 | 0.00 | 0.00 | 65 | 1013.3 |
| 20260905215232 | 32 | 108 | 6.4 | 11.3 | 0.00 | 0.00 | 0.00 | 63 | 1013.3 |
| 20260905214952 | 32 | 43 | 4.8 | 11.3 | 0.00 | 0.00 | 0.00 | 63 | 1013.5 |
| 20260905214232 | 32 | 343 | 4.8 | 11.3 | 0.00 | 0.00 | 0.00 | 65 | 1013.5 |
| 20260905213731 | 32 | 5 | 6.4 | 17.7 | 0.00 | 0.00 | 0.00 | 65 | 1013.4 |
| 20260905213230 | 33 | 353 | 4.8 | 17.7 | 0.00 | 0.00 | 0.00 | 64 | 1013.4 |
| 20260905212731 | 33 | 259 | 4.8 | 9.7 | 0.00 | 0.00 | 0.00 | 62 | 1013.4 |
| 20260905212231 | 33 | 17 | 6.4 | 16.1 | 0.00 | 0.00 | 0.00 | 60 | 1013.4 |
| 20260905211731 | 32 | 9 | 6.4 | 16.1 | 0.00 | 0.00 | 0.00 | 61 | 1013.4 |
| 20260905211230 | 33 | 356 | 4.8 | 14.5 | 0.00 | 0.00 | 0.00 | 63 | 1013.4 |
| 20260905210731 | 33 | 83 | 4.8 | 9.7 | 0.00 | 0.00 | 0.00 | 63 | 1013.4 |
| 20260905210230 | 33 | 320 | 4.8 | 9.7 | 0.00 | 0.00 | 0.00 | 61 | 1013.5 |
| 20260905205230 | 33 | 241 | 4.8 | 12.9 | 0.00 | 0.00 | 0.00 | 66 | 1013.5 |
| 20260905204729 | 32 | 36 | 6.4 | 12.9 | 0.00 | 0.00 | 0.00 | 65 | 1013.5 |
| 20260905204230 | 32 | 82 | 6.4 | 16.1 | 0.00 | 0.00 | 0.00 | 65 | 1013.6 |
| 20260905203957 | 32 | 332 | 4.8 | 16.1 | 0.00 | 0.00 | 0.00 | 65 | 1013.6 |
| 20260905202728 | 32 | 54 | 4.8 | 12.9 | 0.00 | 0.00 | 0.00 | 67 | 1013.6 |
| 20260905202225 | 32 | 69 | 4.8 | 12.9 | 0.00 | 0.00 | 0.00 | 67 | 1013.7 |
| 20260905201727 | 32 | 56 | 4.8 | 11.3 | 0.00 | 0.00 | 0.00 | 66 | 1013.6 |
| 20260905201225 | 33 | 17 | 4.8 | 12.9 | 0.00 | 0.00 | 0.00 | 66 | 1013.7 |
| 20260905200725 | 32 | 43 | 4.8 | 14.5 | 0.00 | 0.00 | 0.00 | 66 | 1013.7 |
| 20260905195725 | 32 | 50 | 6.4 | 11.3 | 0.00 | 0.00 | 0.00 | 67 | 1013.9 |
| 20260905195226 | 32 | 85 | 4.8 | 11.3 | 0.00 | 0.00 | 0.00 | 67 | 1014.0 |
| 20260905194720 | 32 | 23 | 4.8 | 12.9 | 0.00 | 0.00 | 0.00 | 66 | 1014.1 |
| 20260905194220 | 32 | 101 | 4.8 | 12.9 | 0.00 | 0.00 | 0.00 | 67 | 1014.1 |
| 20260905193722 | 32 | 74 | 3.2 | 12.9 | 0.00 | 0.00 | 0.00 | 66 | 1014.1 |
| 20260905193219 | 32 | 307 | 3.2 | 8.0 | 0.00 | 0.00 | 0.00 | 67 | 1014.2 |
| 20260905192722 | 32 | 20 | 3.2 | 8.0 | 0.00 | 0.00 | 0.00 | 67 | 1014.2 |
| 20260905192446 | 32 | 334 | 3.2 | 8.0 | 0.00 | 0.00 | 0.00 | 69 | 1014.1 |
| 20260905191957 | 32 | 320 | 3.2 | 9.7 | 0.00 | 0.00 | 0.00 | 69 | 1014.1 |
| 20260905191219 | 32 | 304 | 3.2 | 9.7 | 0.00 | 0.00 | 0.00 | 69 | 1014.1 |
| 20260905190717 | 32 | 98 | 4.8 | 9.7 | 0.00 | 0.00 | 0.00 | 68 | 1014.1 |
| 20260905190215 | 32 | 83 | 4.8 | 9.7 | 0.00 | 0.00 | 0.00 | 70 | 1014.2 |
| 20260905185715 | 32 | 61 | 3.2 | 8.0 | 0.00 | 0.00 | 0.00 | 68 | 1014.4 |
| 20260905185216 | 31 | 57 | 3.2 | 8.0 | 0.00 | 0.00 | 0.00 | 70 | 1014.5 |
| 20260905184713 | 31 | 127 | 3.2 | 8.0 | 0.00 | 0.00 | 0.00 | 69 | 1014.7 |
| 20260905184213 | 31 | 332 | 3.2 | 12.9 | 0.00 | 0.00 | 0.00 | 69 | 1014.5 |
| 20260905183714 | 31 | 46 | 3.2 | 12.9 | 0.00 | 0.00 | 0.00 | 69 | 1014.5 |
| 20260905183214 | 31 | 64 | 3.2 | 11.3 | 0.00 | 0.00 | 0.00 | 69 | 1014.7 |
| 20260905182211 | 31 | 19 | 4.8 | 12.9 | 0.00 | 0.00 | 0.00 | 68 | 1014.8 |
| 20260905181711 | 31 | 339 | 3.2 | 9.7 | 0.00 | 0.00 | 0.00 | 68 | 1014.7 |
| 20260905181209 | 31 | 344 | 4.8 | 9.7 | 0.00 | 0.00 | 0.00 | 70 | 1014.7 |
| 20260905180709 | 31 | 303 | 3.2 | 9.7 | 0.00 | 0.00 | 0.00 | 69 | 1014.7 |
| 20260905180210 | 31 | 63 | 3.2 | 9.7 | 0.00 | 0.00 | 0.00 | 70 | 1014.5 |
| 20260905175939 | 31 | 69 | 3.2 | 8.0 | 0.00 | 0.00 | 0.00 | 70 | 1014.7 |
| 20260905175209 | 31 | 13 | 4.8 | 12.9 | 0.00 | 0.00 | 0.00 | 70 | 1014.5 |
| 20260905174711 | 31 | 43 | 4.8 | 12.9 | 0.00 | 0.00 | 0.00 | 72 | 1014.5 |
| 20260905174210 | 31 | 88 | 6.4 | 12.9 | 0.00 | 0.00 | 0.00 | 70 | 1014.5 |
| 20260905173709 | 31 | 76 | 4.8 | 12.9 | 0.00 | 0.00 | 0.00 | 71 | 1014.5 |
| 20260905173212 | 31 | 72 | 4.8 | 12.9 | 0.00 | 0.00 | 0.00 | 70 | 1014.5 |
| 20260905172713 | 31 | 59 | 4.8 | 12.9 | 0.00 | 0.00 | 0.00 | 72 | 1014.7 |
| 20260905172209 | 31 | 107 | 6.4 | 12.9 | 0.00 | 0.00 | 0.00 | 70 | 1014.7 |
| 20260905171717 | 31 | 326 | 4.8 | 12.9 | 0.00 | 0.00 | 0.00 | 71 | 1014.8 |
| 20260905171212 | 31 | 53 | 4.8 | 12.9 | 0.00 | 0.00 | 0.00 | 71 | 1014.9 |
| 20260905170712 | 31 | 48 | 4.8 | 12.9 | 0.00 | 0.00 | 0.00 | 73 | 1014.8 |
| 20260905170212 | 31 | 114 | 6.4 | 12.9 | 0.00 | 0.00 | 0.00 | 72 | 1014.8 |
| 20260905165929 | 31 | 344 | 4.8 | 12.9 | 0.00 | 0.00 | 0.00 | 73 | 1014.9 |
| 20260905165207 | 31 | 61 | 3.2 | 9.7 | 0.00 | 0.00 | 0.00 | 72 | 1014.9 |
| 20260905164707 | 31 | 57 | 3.2 | 8.0 | 0.00 | 0.00 | 0.00 | 72 | 1014.9 |
| 20260905164205 | 31 | 45 | 3.2 | 8.0 | 0.00 | 0.00 | 0.00 | 72 | 1015.0 |
| 20260905163929 | 31 | 353 | 3.2 | 8.0 | 0.00 | 0.00 | 0.00 | 73 | 1015.1 |
| 20260905163203 | 31 | 67 | 4.8 | 9.7 | 0.00 | 0.00 | 0.00 | 75 | 1015.0 |
| 20260905162703 | 31 | 102 | 4.8 | 9.7 | 0.00 | 0.00 | 0.00 | 74 | 1015.1 |
| 20260905162204 | 30 | 339 | 4.8 | 11.3 | 0.00 | 0.00 | 0.00 | 74 | 1015.0 |
| 20260905161704 | 30 | 40 | 4.8 | 12.9 | 0.00 | 0.00 | 0.00 | 74 | 1014.9 |
| 20260905161204 | 30 | 36 | 4.8 | 12.9 | 0.00 | 0.00 | 0.00 | 75 | 1014.9 |
| 20260905160702 | 30 | 105 | 3.2 | 11.3 | 0.00 | 0.00 | 0.00 | 76 | 1014.9 |
| 20260905160206 | 30 | 21 | 4.8 | 12.9 | 0.00 | 0.00 | 0.00 | 76 | 1014.9 |
| 20260905155703 | 30 | 334 | 4.8 | 12.9 | 0.00 | 0.00 | 0.00 | 78 | 1014.9 |
| 20260905155204 | 30 | 20 | 6.4 | 12.9 | 0.00 | 0.00 | 0.00 | 76 | 1014.8 |
| 20260905154705 | 30 | 49 | 4.8 | 12.9 | 0.00 | 0.00 | 0.00 | 76 | 1014.8 |
| 20260905154204 | 30 | 62 | 4.8 | 11.3 | 0.00 | 0.00 | 0.00 | 76 | 1014.7 |
| 20260905153702 | 30 | 83 | 4.8 | 8.0 | 0.00 | 0.00 | 0.00 | 77 | 1014.4 |
| 20260905153206 | 30 | 47 | 4.8 | 8.0 | 0.00 | 0.00 | 0.00 | 77 | 1014.5 |
| 20260905152703 | 30 | 48 | 3.2 | 8.0 | 0.00 | 0.00 | 0.00 | 76 | 1014.5 |
| 20260905152203 | 30 | 5 | 3.2 | 6.4 | 0.00 | 0.00 | 0.00 | 75 | 1014.5 |
| 20260905151702 | 30 | 2 | 1.6 | 6.4 | 0.00 | 0.00 | 0.00 | 75 | 1014.4 |
| 20260905151203 | 30 | 37 | 3.2 | 8.0 | 0.00 | 0.00 | 0.00 | 77 | 1014.5 |
| 20260905150704 | 30 | 21 | 4.8 | 11.3 | 0.00 | 0.00 | 0.00 | 75 | 1014.5 |
| 20260905150428 | 30 | 334 | 4.8 | 11.3 | 0.00 | 0.00 | 0.00 | 78 | 1014.3 |
| 20260905145702 | 30 | 330 | 4.8 | 11.3 | 0.00 | 0.00 | 0.00 | 77 | 1014.3 |
| 20260905145201 | 29 | 34 | 3.2 | 8.0 | 0.00 | 0.00 | 0.00 | 77 | 1014.3 |
| 20260905144701 | 29 | 351 | 3.2 | 8.0 | 0.00 | 0.00 | 0.00 | 77 | 1014.2 |
| 20260905144206 | 29 | 13 | 3.2 | 8.0 | 0.00 | 0.00 | 0.00 | 78 | 1014.3 |
| 20260905143702 | 29 | 21 | 3.2 | 6.4 | 0.00 | 0.00 | 0.00 | 79 | 1014.2 |
| 20260905143424 | 28 | 53 | 3.2 | 6.4 | 0.00 | 0.00 | 0.00 | 79 | 1014.1 |
| 20260905142701 | 28 | 77 | 3.2 | 6.4 | 0.00 | 0.00 | 0.00 | 80 | 1014.1 |
| 20260905142154 | 28 | 322 | 1.6 | 6.4 | 0.00 | 0.00 | 0.00 | 81 | 1014.1 |
| 20260905141648 | 28 | 72 | 3.2 | 8.0 | 0.00 | 0.00 | 0.00 | 82 | 1014.0 |
| 20260905141142 | 28 | 29 | 3.2 | 8.0 | 0.00 | 0.00 | 0.00 | 82 | 1014.0 |
| 20260905140640 | 27 | 317 | 3.2 | 8.0 | 0.00 | 0.00 | 0.00 | 82 | 1013.9 |
| 20260905140141 | 27 | 312 | 4.8 | 8.0 | 0.00 | 0.00 | 0.00 | 82 | 1013.8 |
| 20260905135642 | 27 | 20 | 3.2 | 6.4 | 0.00 | 0.00 | 0.00 | 82 | 1013.8 |
| 20260905135139 | 27 | 349 | 1.6 | 6.4 | 0.00 | 0.00 | 0.00 | 82 | 1013.9 |
| 20260905134639 | 27 | 3 | 1.6 | 3.2 | 0.00 | 0.00 | 0.00 | 83 | 1013.8 |
| 20260905134138 | 27 | 19 | 1.6 | 3.2 | 0.00 | 0.00 | 0.00 | 83 | 1013.8 |
| 20260905133636 | 27 | 279 | 1.6 | 3.2 | 0.00 | 0.00 | 0.00 | 83 | 1013.7 |
| 20260905133402 | 27 | 268 | 0.0 | 1.6 | 0.00 | 0.00 | 0.00 | 83 | 1013.7 |
| 20260905132634 | 27 | 196 | 0.0 | 1.6 | 0.00 | 0.00 | 0.00 | 84 | 1013.6 |
| 20260905132131 | 26 | 282 | 0.0 | 1.6 | 0.00 | 0.00 | 0.00 | 86 | 1013.5 |
| 20260905131630 | 26 | 281 | 0.0 | 1.6 | 0.00 | 0.00 | 0.00 | 87 | 1013.5 |
| 20260905131130 | 26 | 285 | 0.0 | 1.6 | 0.00 | 0.00 | 0.00 | 87 | 1013.5 |
| 20260905130630 | 26 | 349 | 0.0 | 1.6 | 0.00 | 0.00 | 0.00 | 88 | 1013.5 |
| 20260905130354 | 26 | 349 | 1.6 | 3.2 | 0.00 | 0.00 | 0.00 | 88 | 1013.4 |
| 20260905125631 | 25 | 29 | 0.0 | 3.2 | 0.00 | 0.00 | 0.00 | 89 | 1013.4 |
| 20260905125354 | 25 | 138 | 0.0 | 1.6 | 0.00 | 0.00 | 0.00 | 90 | 1013.3 |
| 20260905124634 | 25 | 139 | 0.0 | 0.0 | 0.00 | 0.00 | 0.00 | 91 | 1013.2 |
| 20260905124127 | 25 | 139 | 0.0 | 1.6 | 0.00 | 0.00 | 0.00 | 92 | 1013.2 |
| 20260905123627 | 24 | 139 | 0.0 | 1.6 | 0.00 | 0.00 | 0.00 | 93 | 1013.2 |
| 20260905123127 | 24 | 139 | 0.0 | 1.6 | 0.00 | 0.00 | 0.00 | 93 | 1013.2 |
| 20260905122624 | 24 | 139 | 0.0 | 1.6 | 0.00 | 0.00 | 0.00 | 93 | 1013.3 |
| 20260905122125 | 23 | 139 | 0.0 | 1.6 | 0.00 | 0.00 | 0.00 | 93 | 1013.2 |
| 20260905121626 | 23 | 139 | 0.0 | 1.6 | 0.00 | 0.00 | 0.00 | 93 | 1013.1 |
| 20260905121123 | 23 | 139 | 0.0 | 3.2 | 0.00 | 0.00 | 0.00 | 93 | 1012.9 |
| 20260905120623 | 23 | 157 | 0.0 | 3.2 | 0.00 | 0.00 | 0.00 | 93 | 1012.9 |
| 20260905120121 | 23 | 144 | 0.0 | 1.6 | 0.00 | 0.00 | 0.00 | 93 | 1012.8 |
| 20260905115620 | 23 | 135 | 0.0 | 1.6 | 0.00 | 0.00 | 0.00 | 93 | 1013.0 |
| 20260905115119 | 23 | 135 | 0.0 | 1.6 | 0.00 | 0.00 | 0.00 | 93 | 1013.0 |
| 20260905114618 | 23 | 70 | 0.0 | 1.6 | 0.00 | 0.00 | 0.00 | 93 | 1013.1 |
| 20260905114117 | 23 | 70 | 0.0 | 0.0 | 0.00 | 0.00 | 0.00 | 93 | 1013.0 |
| 20260905113617 | 23 | 69 | 0.0 | 0.0 | 0.00 | 0.00 | 0.00 | 93 | 1012.8 |
| 20260905113116 | 23 | 70 | 0.0 | 0.0 | 0.00 | 0.00 | 0.00 | 93 | 1012.7 |
| 20260905112111 | 23 | 69 | 0.0 | 1.6 | 0.00 | 0.00 | 0.00 | 93 | 1012.7 |
| 20260905111608 | 23 | 69 | 0.0 | 0.0 | 0.00 | 0.00 | 0.00 | 93 | 1012.6 |
| 20260905111107 | 23 | 69 | 0.0 | 1.6 | 0.00 | 0.00 | 0.00 | 93 | 1012.7 |
| 20260905110605 | 23 | 69 | 0.0 | 1.6 | 0.00 | 0.00 | 0.00 | 93 | 1012.6 |
| 20260905105600 | 23 | 69 | 0.0 | 0.0 | 0.00 | 0.00 | 0.00 | 93 | 1012.6 |
| 20260905105100 | 23 | 70 | 0.0 | 0.0 | 0.00 | 0.00 | 0.00 | 93 | 1012.5 |
| 20260905104554 | 23 | 70 | 0.0 | 0.0 | 0.00 | 0.00 | 0.00 | 93 | 1012.5 |
| 20260905104053 | 24 | 70 | 0.0 | 0.0 | 0.00 | 0.00 | 0.00 | 92 | 1012.5 |
| 20260905103551 | 24 | 70 | 0.0 | 0.0 | 0.00 | 0.00 | 0.00 | 92 | 1012.4 |
| 20260905103311 | 24 | 70 | 0.0 | 0.0 | 0.00 | 0.00 | 0.00 | 92 | 1012.5 |
| 20260905102812 | 24 | 70 | 0.0 | 0.0 | 0.00 | 0.00 | 0.00 | 93 | 1012.4 |
| 20260905102047 | 24 | 69 | 0.0 | 0.0 | 0.00 | 0.00 | 0.00 | 93 | 1012.5 |
| 20260905101546 | 24 | 69 | 0.0 | 0.0 | 0.00 | 0.00 | 0.00 | 93 | 1012.5 |
| 20260905101045 | 24 | 69 | 0.0 | 0.0 | 0.00 | 0.00 | 0.00 | 93 | 1012.6 |
| 20260905100803 | 24 | 69 | 0.0 | 0.0 | 0.00 | 0.00 | 0.00 | 93 | 1012.6 |
| 20260905100041 | 24 | 70 | 0.0 | 0.0 | 0.00 | 0.00 | 0.00 | 92 | 1012.6 |
| 20260905095539 | 24 | 70 | 0.0 | 0.0 | 0.00 | 0.00 | 0.00 | 92 | 1012.6 |
| 20260905095038 | 24 | 69 | 0.0 | 0.0 | 0.00 | 0.00 | 0.00 | 92 | 1012.7 |
| 20260905094538 | 24 | 70 | 0.0 | 0.0 | 0.00 | 0.00 | 0.00 | 92 | 1012.7 |
| 20260905094257 | 24 | 70 | 0.0 | 0.0 | 0.00 | 0.00 | 0.00 | 92 | 1012.7 |
| 20260905093536 | 24 | 70 | 0.0 | 0.0 | 0.00 | 0.00 | 0.00 | 91 | 1012.7 |
| 20260905093303 | 24 | 70 | 0.0 | 0.0 | 0.00 | 0.00 | 0.00 | 91 | 1012.7 |
| 20260905092758 | 25 | 70 | 0.0 | 0.0 | 0.00 | 0.00 | 0.00 | 90 | 1012.7 |
| 20260905092033 | 25 | 70 | 0.0 | 0.0 | 0.00 | 0.00 | 0.00 | 90 | 1012.8 |
| 20260905091531 | 25 | 70 | 0.0 | 1.6 | 0.00 | 0.00 | 0.00 | 90 | 1012.8 |
| 20260905091031 | 25 | 69 | 0.0 | 1.6 | 0.00 | 0.00 | 0.00 | 90 | 1012.9 |
| 20260905090753 | 25 | 70 | 0.0 | 0.0 | 0.00 | 0.00 | 0.00 | 90 | 1012.9 |
| 20260905090029 | 25 | 70 | 0.0 | 0.0 | 0.00 | 0.00 | 0.00 | 89 | 1012.9 |
| 20260905085531 | 25 | 70 | 0.0 | 0.0 | 0.00 | 0.00 | 0.00 | 89 | 1012.9 |
| 20260905085031 | 25 | 70 | 0.0 | 0.0 | 0.00 | 0.00 | 0.00 | 89 | 1012.9 |
| 20260905084531 | 25 | 70 | 0.0 | 1.6 | 0.00 | 0.00 | 0.00 | 89 | 1012.8 |
| 20260905084030 | 25 | 70 | 0.0 | 1.6 | 0.00 | 0.00 | 0.00 | 89 | 1012.9 |
| 20260905083757 | 25 | 69 | 0.0 | 1.6 | 0.00 | 0.00 | 0.00 | 89 | 1012.9 |
| 20260905083030 | 25 | 91 | 0.0 | 1.6 | 0.00 | 0.00 | 0.00 | 90 | 1012.9 |
| 20260905082532 | 25 | 92 | 0.0 | 0.0 | 0.00 | 0.00 | 0.00 | 90 | 1012.9 |
| 20260905082031 | 25 | 92 | 0.0 | 0.0 | 0.00 | 0.00 | 0.00 | 90 | 1012.9 |
| 20260905081530 | 25 | 92 | 0.0 | 0.0 | 0.00 | 0.00 | 0.00 | 90 | 1012.9 |
| 20260905081029 | 25 | 92 | 0.0 | 0.0 | 0.00 | 0.00 | 0.00 | 90 | 1012.9 |
| 20260905080528 | 25 | 92 | 0.0 | 0.0 | 0.00 | 0.00 | 0.00 | 90 | 1013.0 |
| 20260905080029 | 25 | 92 | 0.0 | 0.0 | 0.00 | 0.00 | 0.00 | 90 | 1013.0 |
| 20260905075529 | 25 | 92 | 0.0 | 0.0 | 0.00 | 0.00 | 0.00 | 89 | 1012.9 |
| 20260905075029 | 25 | 92 | 0.0 | 0.0 | 0.00 | 0.00 | 0.00 | 89 | 1012.9 |
| 20260905074529 | 25 | 91 | 0.0 | 0.0 | 0.00 | 0.00 | 0.00 | 89 | 1012.9 |
| 20260905074029 | 25 | 91 | 0.0 | 0.0 | 0.00 | 0.00 | 0.00 | 89 | 1013.0 |
| 20260905073524 | 25 | 91 | 0.0 | 0.0 | 0.00 | 0.00 | 0.00 | 89 | 1013.1 |